Location: Fauquembergues
(50.6005°N, 2.0987°E)
Time: 04:17:33
(UTC+00:00)

Cosmos 1607 - Pass Details

Date: 14 July 2020
Orbit: 913 x 989 km, 65.0° (Epoch: 06 August)

Event Time Altitude Azimuth Distance (km) Brightness Sun altitude
Exits shadow 00:20:04 19° 225° (SW) 2,070 5.3 -17.6°
Maximum altitude 00:24:40 81° 312° (NW) 971 4.0 -17.5°
Drops below altitude 10° 00:31:03 10° 40° (NE) 2,716 7.2 -17.4°
Sets 00:33:39 0° 41° (NE) 3,677 8.0 -17.3°
